[[{"header":{"parameterUnit":"m.s-1","parameterCategory":1,"la1":30.2991,"la2":30.254,"lo1":-89.0895,"lo2":-89.0444,"dy":0.0017,"dx":0.0017,"nx":28,"ny":28,"refTime":"2024-08-03T09:00:00:Z","depth":0,"parameterNumber":2,"parameterNumberName":"U-component_of_WINDS"},"data":[0,0,0,0,0,0,0,0,0,0,0,0,0,0,0,0,0,0,0,0,0,0,0,0,0,0,0,0,0,0,0,0,0,0,0,0,0,0,0,0,0,0,0,0,0,0,0,0,0,0,0,0,0,0,0,0,0,0,-3.7545,-3.7544,0,-3.7479,-3.7478,-3.7477,-3.7385,-3.7384,-3.7382,-3.7381,-3.7311,-3.7311,-3.7311,0,0,0,0,0,0,0,0,0,0,0,0,0,-3.7591,-3.7591,-3.7545,-3.7544,-3.7543,-3.7479,-3.7478,-3.7477,-3.7386,-3.7384,-3.7382,-3.738,-3.7311,-3.7311,-3.7311,0,0,0,0,0,0,0,0,0,0,0,0,0,-3.7553,-3.759,-3.7545,-3.749,-3.7484,-3.7479,-3.7478,-3.7477,-3.7386,-3.7384,-3.7381,-3.7379,-3.7312,-3.7311,-3.731,-3.7354,0,0,-3.7309,-3.7308,0,0,0,0,0,0,0,0,-3.7555,-3.7551,-3.7499,-3.7494,-3.7487,-3.7438,-3.7469,-3.7435,-3.7386,-3.7423,-3.7381,-3.7378,-3.7355,-3.7351,-3.7344,-3.735,-3.7347,-3.7309,-3.7308,-3.7308,-3.7308,0,0,0,0,0,0,0,-3.7558,-3.7553,-3.7519,-3.7498,-3.7491,-3.7468,-3.746,-3.7462,-3.7403,-3.742,-3.7413,-3.7407,-3.7352,-3.7344,-3.7341,-3.7346,-3.7309,-3.7308,-3.7308,-3.7307,-3.7384,-3.7386,0,0,0,0,0,0,-3.7569,-3.7556,-3.7521,-3.7517,-3.7516,-3.7469,-3.746,-3.7456,-3.7403,-3.7392,-3.7409,-3.7402,-3.7347,-3.7342,-3.7338,-3.7384,-3.7308,-3.7307,-3.7307,-3.7382,-3.7384,-3.7387,0,0,0,0,0,0,-3.757,-3.7566,-3.7523,-3.7535,-3.7527,-3.7471,-3.7467,-3.7456,-3.7449,-3.7394,-3.7383,-3.7412,-3.7344,-3.7339,-3.735,-3.7381,-3.7307,-3.7307,-3.7379,-3.7382,-3.7386,-3.7477,0,0,0,0,0,0,-3.7572,-3.7567,-3.7583,-3.7536,-3.7527,-3.7537,-3.7469,-3.7456,-3.7448,-3.7439,-3.7395,-3.7385,-3.7342,-3.7352,-3.735,-3.7378,-3.7306,-3.7376,-3.738,-3.7385,-3.7471,-3.7483,-3.7494,0,0,0,0,0,-3.7574,-3.7612,-3.7585,-3.7581,-3.7546,-3.7539,-3.7534,-3.7485,-3.7451,-3.7466,-3.7431,-3.7386,-3.7378,-3.7354,-3.7351,-3.738,-3.7373,-3.7379,-3.7384,-3.7466,-3.7481,-3.7494,0,0,0,0,0,0,-3.7664,-3.7604,-3.7574,-3.7598,-3.7574,-3.7524,-3.7541,-3.7502,-3.7488,-3.748,-3.7419,-3.741,-3.7428,-3.7405,-3.7379,-3.7418,-3.7369,-3.7374,-3.7432,-3.7446,-3.7457,-3.7462,-3.7306,0,0,0,0,0,-3.7687,-3.7687,-3.7634,-3.7661,-3.765,-3.7599,-3.7594,-3.7558,-3.7531,-3.752,-3.7486,-3.7461,-3.7452,-3.7448,-3.7437,-3.7468,-3.7456,-3.7486,-3.7498,-3.7507,-3.7512,-3.7525,-3.7538,-3.7405,-3.7405,-3.7404,0,0,-3.7734,-3.7701,-3.7705,-3.7678,-3.7655,-3.7656,-3.7591,-3.7594,-3.7593,-3.752,-3.7528,-3.7503,-3.7471,-3.7492,-3.7499,-3.7473,-3.7546,-3.7514,-3.7522,-3.7521,-3.7532,-3.7545,-3.7556,-3.7408,-3.7408,-3.7407,0,0,-3.7819,-3.7795,-3.7813,-3.7793,-3.776,-3.7725,-3.773,-3.7685,-3.7665,-3.7673,-3.7618,-3.7616,-3.7603,-3.7583,-3.757,-3.7649,-3.7606,-3.7647,-3.7706,-3.7719,-3.773,-3.7739,-3.7765,-3.7776,-3.7652,-3.7652,-3.7653,0,-3.7881,-3.788,-3.7828,-3.7835,-3.7824,-3.7759,-3.7777,-3.7759,-3.7724,-3.7718,-3.769,-3.7672,-3.7646,-3.7661,-3.768,-3.7673,-3.7675,-3.7651,-3.7733,-3.7741,-3.7749,-3.7773,-3.7784,-3.7657,-3.7657,-3.7656,-3.7656,0,-3.7957,-3.7958,-3.7977,-3.7945,-3.7937,-3.795,-3.7899,-3.7897,-3.7862,-3.783,-3.7838,-3.7805,-3.7786,-3.7787,-3.7753,-3.7797,-3.7781,-3.7744,-3.7693,-3.7767,-3.7789,-3.7798,-3.7665,-3.7663,-3.7661,-3.766,0,0,-3.8096,-3.8036,-3.8044,-3.8029,-3.7988,-3.7987,-3.7997,-3.7979,-3.7977,-3.7956,-3.7962,-3.7953,-3.7918,-3.7904,-3.7867,-3.788,-3.7942,-3.784,-3.7838,-3.7859,-3.7986,-3.8014,-3.8025,-3.7914,-3.7916,-3.7917,-3.7988,0,-3.8172,-3.8185,-3.8139,-3.8163,-3.8162,-3.8101,-3.8109,-3.8085,-3.8055,-3.805,-3.8017,-3.8011,-3.7966,-3.7958,-3.7967,-3.7933,-3.7966,-3.7927,-3.7917,-3.7918,-3.7926,-3.8037,-3.8066,-3.8134,-3.7997,-3.7998,-3.7999,0,-3.8262,-3.8246,-3.8271,-3.8228,-3.8226,-3.8235,-3.8214,-3.821,-3.8181,-3.8159,-3.8144,-3.8102,-3.8107,-3.806,-3.8066,-3.804,-3.8034,-3.8017,-3.8018,-3.8014,-3.7962,-3.8034,-3.8155,-3.8165,-3.8013,-3.8012,-3.8011,0,-3.8359,-3.8344,-3.8356,-3.8345,-3.8297,-3.8304,-3.8284,-3.8253,-3.8245,-3.8227,-3.8221,-3.8204,-3.8195,-3.8182,-3.8136,-3.8106,-3.8147,-3.8097,-3.8128,-3.8129,-3.8137,-3.8137,-3.8258,-3.8137,-3.8137,-3.8136,-3.8136,0,-3.8448,-3.8465,-3.8399,-3.8406,-3.8424,-3.8371,-3.8389,-3.8363,-3.8336,-3.8336,-3.8283,-3.8284,-3.8224,-3.8219,-3.8183,-3.8193,-3.8189,-3.8171,-3.816,-3.8174,-3.8177,-3.8168,-3.8161,-3.8139,-3.8138,-3.8138,-3.8138,0,-3.8558,-3.8515,-3.8524,-3.8478,-3.8467,-3.8481,-3.8441,-3.8446,-3.8414,-3.8415,-3.8413,-3.8362,-3.8353,-3.8306,-3.8287,-3.8262,-3.8284,-3.8265,-3.8294,-3.8287,-3.832,-3.8317,-3.8438,-3.845,-3.8324,-3.8325,-3.8326,0,-3.8617,-3.8629,-3.8584,-3.8581,-3.8563,-3.8559,-3.8551,-3.8499,-3.8493,-3.8461,-3.8469,-3.8457,-3.8443,-3.8432,-3.8393,-3.8377,-3.8356,-3.84,-3.8353,-3.8367,-3.8355,-3.8354,-3.8354,-3.8409,-3.8411,-3.8412,-3.8413,0,-3.8725,-3.8703,-3.8694,-3.8677,-3.8669,-3.8653,-3.8634,-3.8634,-3.8577,-3.8572,-3.8563,-3.8553,-3.8533,-3.852,-3.8498,-3.8476,-3.8435,-3.8428,-3.8434,-3.8448,-3.8463,-3.8453,-3.8319,-3.8425,-3.8424,-3.8423,-3.8423,-3.8422,-3.881,-3.8817,-3.8787,-3.8778,-3.8758,-3.8742,-3.8743,-3.8712,-3.8704,-3.8684,-3.8654,-3.8648,-3.8619,-3.8585,-3.8567,-3.8561,-3.8537,-3.8546,-3.8548,-3.8551,-3.8557,-3.8466,-3.8557,-3.8556,-3.8556,-3.8556,-3.8555,0,-3.8913,-3.8891,-3.8884,-3.8859,-3.8852,-3.8815,-3.8792,-3.8788,-3.8784,-3.8761,-3.8749,-3.8738,-3.8725,-3.8686,-3.8669,-3.8672,-3.8652,-3.8669,-3.8667,-3.8663,-3.858,-3.8576,-3.8685,-3.8685,-3.8685,-3.8685,-3.8685,-3.8685,-3.8967,-3.8977,-3.8951,-3.8951,-3.8928,-3.8923,-3.8913,-3.8897,-3.8877,-3.8868,-3.8857,-3.8832,-3.8802,-3.8782,-3.8769,-3.8757,-3.8753,-3.8776,-3.8758,-3.8681,-3.8669,-3.8657,-3.8652,-3.8776,-3.8776,-3.884,-3.8841,-3.8841]},{"header":{"parameterUnit":"m.s-1","parameterCategory":1,"la1":30.2991,"la2":30.254,"lo1":-89.0895,"lo2":-89.0444,"dy":0.0017,"dx":0.0017,"nx":28,"ny":28,"refTime":"2024-08-03T09:00:00:Z","depth":0,"parameterNumber":3,"parameterNumberName":"V-component_of_WINDS"},"data":[0,0,0,0,0,0,0,0,0,0,0,0,0,0,0,0,0,0,0,0,0,0,0,0,0,0,0,0,0,0,0,0,0,0,0,0,0,0,0,0,0,0,0,0,0,0,0,0,0,0,0,0,0,0,0,0,0,0,-0.7431,-0.7432,0,-0.7477,-0.7478,-0.7479,-0.7503,-0.7503,-0.7503,-0.7504,-0.755,-0.7551,-0.7553,0,0,0,0,0,0,0,0,0,0,0,0,0,-0.7364,-0.7365,-0.7431,-0.7432,-0.7432,-0.7477,-0.7478,-0.7479,-0.7503,-0.7503,-0.7503,-0.7504,-0.755,-0.7551,-0.7553,0,0,0,0,0,0,0,0,0,0,0,0,0,-0.74,-0.7365,-0.7431,-0.745,-0.7452,-0.7477,-0.7478,-0.7479,-0.7503,-0.7503,-0.7504,-0.7504,-0.7549,-0.7551,-0.7553,-0.7562,0,0,-0.7558,-0.7559,0,0,0,0,0,0,0,0,-0.7398,-0.7402,-0.7447,-0.7449,-0.7451,-0.7485,-0.7471,-0.7507,-0.7503,-0.7484,-0.7504,-0.7504,-0.7528,-0.7532,-0.754,-0.7564,-0.7566,-0.7558,-0.756,-0.756,-0.7561,0,0,0,0,0,0,0,-0.7395,-0.7401,-0.745,-0.7447,-0.745,-0.7456,-0.7461,-0.7478,-0.7505,-0.7486,-0.7488,-0.7493,-0.753,-0.7538,-0.7542,-0.7567,-0.7558,-0.756,-0.7561,-0.7562,-0.7601,-0.7601,0,0,0,0,0,0,-0.739,-0.7398,-0.7448,-0.7451,-0.7424,-0.7457,-0.7463,-0.7474,-0.7505,-0.751,-0.7493,-0.7494,-0.7535,-0.7539,-0.7543,-0.7557,-0.756,-0.7562,-0.7563,-0.7601,-0.7601,-0.7601,0,0,0,0,0,0,-0.7388,-0.7394,-0.7446,-0.7425,-0.7432,-0.7458,-0.747,-0.7475,-0.7484,-0.751,-0.7515,-0.7497,-0.7536,-0.7541,-0.7557,-0.7559,-0.7563,-0.7564,-0.7601,-0.7601,-0.7601,-0.7583,0,0,0,0,0,0,-0.7386,-0.7393,-0.7397,-0.7425,-0.7433,-0.746,-0.747,-0.7476,-0.7487,-0.7489,-0.7516,-0.752,-0.7536,-0.7555,-0.7559,-0.7561,-0.7566,-0.7601,-0.7601,-0.7601,-0.7584,-0.7582,-0.7581,0,0,0,0,0,-0.7384,-0.739,-0.7397,-0.7403,-0.7439,-0.746,-0.7464,-0.7483,-0.7487,-0.7491,-0.7508,-0.7519,-0.7558,-0.7556,-0.7561,-0.7564,-0.7601,-0.7601,-0.7601,-0.7584,-0.7583,-0.7581,0,0,0,0,0,0,-0.7362,-0.7394,-0.7403,-0.7418,-0.7436,-0.7464,-0.747,-0.7481,-0.7498,-0.7499,-0.7521,-0.7527,-0.7541,-0.7554,-0.7552,-0.7575,-0.7581,-0.7582,-0.7566,-0.7565,-0.7563,-0.756,-0.7567,0,0,0,0,0,-0.7359,-0.7373,-0.7401,-0.7412,-0.742,-0.7443,-0.7453,-0.7466,-0.7485,-0.7493,-0.7511,-0.7529,-0.7545,-0.7556,-0.7572,-0.7585,-0.7592,-0.759,-0.7589,-0.7587,-0.7588,-0.7597,-0.7596,-0.7601,-0.7601,-0.7601,0,0,-0.7353,-0.7372,-0.738,-0.7408,-0.7423,-0.7438,-0.745,-0.7464,-0.7475,-0.7495,-0.7512,-0.7526,-0.7548,-0.7563,-0.757,-0.7574,-0.7588,-0.7587,-0.7586,-0.7588,-0.7596,-0.7596,-0.7596,-0.7601,-0.7601,-0.7601,0,0,-0.7349,-0.7365,-0.7377,-0.7392,-0.7415,-0.743,-0.7432,-0.7459,-0.7469,-0.7486,-0.7502,-0.7514,-0.7542,-0.7557,-0.7568,-0.757,-0.7581,-0.7574,-0.7568,-0.7576,-0.7576,-0.7576,-0.7577,-0.7577,-0.7575,-0.7575,-0.7575,0,-0.7339,-0.7361,-0.7381,-0.7395,-0.7407,-0.7425,-0.7437,-0.745,-0.7477,-0.7485,-0.7489,-0.7524,-0.7539,-0.7559,-0.7559,-0.7567,-0.7571,-0.7572,-0.7574,-0.7574,-0.7574,-0.7576,-0.7576,-0.7574,-0.7574,-0.7574,-0.7574,0,-0.7348,-0.7363,-0.7369,-0.7395,-0.7407,-0.742,-0.7441,-0.7451,-0.7463,-0.7478,-0.7495,-0.7515,-0.7535,-0.7541,-0.7552,-0.7561,-0.7563,-0.757,-0.7577,-0.7573,-0.7574,-0.7575,-0.7573,-0.7573,-0.7573,-0.7573,0,0,-0.7332,-0.7368,-0.7371,-0.7383,-0.7409,-0.7421,-0.7435,-0.7455,-0.7464,-0.7481,-0.7493,-0.7516,-0.7523,-0.7535,-0.7548,-0.7555,-0.7555,-0.7561,-0.7562,-0.756,-0.7567,-0.7562,-0.7562,-0.7563,-0.7563,-0.7563,-0.7566,0,-0.7333,-0.7358,-0.7376,-0.7394,-0.7408,-0.7426,-0.7437,-0.7455,-0.7469,-0.7483,-0.7498,-0.7514,-0.7522,-0.753,-0.7537,-0.7554,-0.7557,-0.7554,-0.7574,-0.7574,-0.7568,-0.7563,-0.7558,-0.7559,-0.7566,-0.7566,-0.7566,0,-0.7337,-0.7355,-0.7374,-0.7399,-0.7406,-0.7416,-0.7436,-0.745,-0.747,-0.7479,-0.7493,-0.7507,-0.7521,-0.7526,-0.7546,-0.7544,-0.7553,-0.7562,-0.7563,-0.7566,-0.7571,-0.7566,-0.756,-0.7561,-0.7567,-0.7567,-0.7567,0,-0.7324,-0.7353,-0.7368,-0.7378,-0.7408,-0.7414,-0.7427,-0.7447,-0.7458,-0.7476,-0.7483,-0.7502,-0.7512,-0.7526,-0.7544,-0.7546,-0.7563,-0.7569,-0.7572,-0.7571,-0.7575,-0.7575,-0.7571,-0.758,-0.758,-0.758,-0.758,0,-0.7324,-0.7335,-0.7363,-0.7373,-0.7386,-0.7406,-0.7418,-0.7433,-0.745,-0.7463,-0.7479,-0.749,-0.7513,-0.7527,-0.7541,-0.7556,-0.756,-0.7569,-0.7572,-0.7568,-0.7567,-0.7574,-0.7575,-0.758,-0.758,-0.758,-0.758,0,-0.7312,-0.7331,-0.7349,-0.7376,-0.7383,-0.7391,-0.7414,-0.7424,-0.7439,-0.7454,-0.7459,-0.7482,-0.7499,-0.7519,-0.7542,-0.7552,-0.7566,-0.7571,-0.7559,-0.7562,-0.7563,-0.7563,-0.7565,-0.7566,-0.7573,-0.7573,-0.7573,0,-0.7311,-0.732,-0.7347,-0.7357,-0.7369,-0.7384,-0.7396,-0.7416,-0.7427,-0.7451,-0.7458,-0.7476,-0.7492,-0.7519,-0.7538,-0.7556,-0.7562,-0.7561,-0.7565,-0.756,-0.7562,-0.7562,-0.7563,-0.756,-0.756,-0.756,-0.756,0,-0.7306,-0.7315,-0.7331,-0.7351,-0.7364,-0.738,-0.7397,-0.7404,-0.7427,-0.7439,-0.7457,-0.7469,-0.7493,-0.7512,-0.7532,-0.7545,-0.7556,-0.7559,-0.756,-0.7556,-0.7549,-0.7553,-0.7557,-0.7559,-0.7559,-0.7559,-0.7559,-0.7559,-0.73,-0.7309,-0.733,-0.7347,-0.7362,-0.7377,-0.7388,-0.7404,-0.7419,-0.7441,-0.7451,-0.7469,-0.7489,-0.7518,-0.753,-0.7544,-0.7548,-0.755,-0.7551,-0.7551,-0.755,-0.7546,-0.7548,-0.7548,-0.7548,-0.7548,-0.7548,0,-0.7297,-0.7311,-0.7327,-0.735,-0.7363,-0.7373,-0.7392,-0.7402,-0.7418,-0.7436,-0.7451,-0.7472,-0.749,-0.751,-0.7528,-0.7536,-0.7542,-0.754,-0.754,-0.7543,-0.7546,-0.7543,-0.7535,-0.7535,-0.7535,-0.7535,-0.7535,-0.7535,-0.7297,-0.7313,-0.7324,-0.7348,-0.7362,-0.738,-0.739,-0.7404,-0.7418,-0.744,-0.7455,-0.7468,-0.7487,-0.7507,-0.7524,-0.7529,-0.7536,-0.7533,-0.754,-0.7542,-0.7543,-0.7544,-0.7541,-0.7534,-0.7534,-0.7536,-0.7536,-0.7536]}]]